User: anonymous   Login
Location: Dover
(39.1580°N, 75.5250°W)
Time: 15:59:47
(UTC-04:00)
Language:

SeaSat 1 - Orbit

View from above orbital plane
View from above orbital plane
View from above satellite
View from above satellite

Ground track
Ground track

The orbit data is extracted from the following two-line orbital elements,

1 10967U 78064A   15187.23133871  .00000074  00000-0  62346-4 0  9994
2 10967 107.9938 252.4524 0001399 289.2139 070.8853 14.43408913943860
Epoch (UTC): 06 July 2015 05:33:07
Eccentricity: 0.0001399
inclination: 107.9938°
perigee height: 746 km
apogee height: 748 km
right ascension of ascending node: 252.4524°
argument of perigee: 289.2139°
revolutions per day: 14.43408913
mean anomaly at epoch: 70.8853°
orbit number at epoch: 94386

The dashed part of the orbit path shows where the satellite is in the earth's shadow,  

DLR